PROFILE

 METAR AND TAF INFORMATION
ADDS - METARS form results

(0744 UTC 19 August 2019)
http://aviationweather.gov/metar/data/
 
EDDH 190720Z 22016KT 9999 FEW015 17/13 Q1012 TEMPO 23015G25KT
EDDH 190650Z 22013KT 9999 FEW014 16/13 Q1011 TEMPO 23015G25KT
TAF EDDH 190500Z 1906/2012 24012KT 9999 FEW040 PROB30 TEMPO 1906/1908 BKN012 TEMPO 1908/1916 24015G25KT BECMG 1916/1918 22006KT 

 AIRPORT MAP

 RUNWAY INFORMATION
Runway 05 Runway length 10663 ft Runway width 150 ft
Runway elevation 32 ft Runway displaced threshold 978 ft Runway heading 50
Runway 23 Runway length 10663 ft Runway width 150 ft
Runway elevation 43 ft Runway displaced threshold 512 ft Runway heading 230
Runway 15 Runway length 12028 ft Runway width 150 ft
Runway elevation 53 ft Runway displaced threshold 0 ft Runway heading 153
Runway 33 Runway length 12028 ft Runway width 150 ft
Runway elevation 35 ft Runway displaced threshold 1464 ft Runway heading 333

 AIRPORT FREQUENCIES
Type ATIS Name ATIS Frequency 123.125 MHZ
Type DIR Name DIRECTOR Frequency 118.2 MHZ
Type GND Name GND Frequency 121.8 MHZ
Type RDR Name BREMEN RAD Frequency 134.25 MHZ
Type RMP Name APRON Frequency 121.7 MHZ
Type TWR Name TWR Frequency 126.85 MHZ

 AIRPORT NEAR NAVIGATION AIDS
Type DME Name Alster Frequency 115800 KHZ
Type NDB Name Hamburg West Frequency 351 KHZ
Type NDB Name Hamburg North Frequency 323 KHZ
Type VORTAC Name Hamburg Frequency 113100 KHZ
Type NDB Name Hamburg Frequency 339 KHZ